Location: Dürabuch
(48.2640°N, 11.2185°E)
Time: 21:58:29
(UTC+00:00)

ADEOS II - Pass Details

Date: 23 May 2024
Orbit: 795 x 798 km, 98.7° (Epoch: 14 June)

Event Time Altitude Azimuth Distance (km) Brightness Sun altitude
Rises 01:12:26 0° 19° (NNE) 3,312 7.0 -16.0°
Reaches altitude 10° 01:14:52 10° 25° (NNE) 2,377 5.9 -15.8°
Maximum altitude 01:19:56 48° 99° (E) 1,030 2.8 -15.4°
Enters shadow 01:24:14 14° 171° (S) 2,085 3.8 -15.0°
